Regional Weather Roundup
Issued by NWS Charleston, SC

Current Version | Previous Version | Text Only | Print | Product List | Glossary Off
Versions: 1 2 3 4 5 6 7 8 9 10 11 12 13 14 15 16 17 18 19 20 21 22 23 24 25 26 27 28 29 30 31 32 33 34 35 36 37 38 39 40 41 42 43 44 45 46 47 48 49 50

000
ASUS42 KCHS 062027
RWRCHS

REGIONAL WEATHER ROUNDUP
NATIONAL WEATHER SERVICE CHARLESTON SC
300 PM EST SAT FEB 06 2016

NOTE: "FAIR" INDICATES FEW OR NO CLOUDS BELOW 12,000 FEET WITH NO
SIGNIFICANT WEATHER AND/OR OBSTRUCTIONS TO VISIBILITY.

NOT ALL STATIONS ARE QUALITY CONTROLLED BY THE NATIONAL
WEATHER SERVICE. USE DATA WITH CAUTION...ESPECIALLY
DEWPOINT OBSERVATIONS.

NOTICE: OBSERVATIONS FOR THE SAVANNAH-HILTON HEAD INTERNATIONAL AIRPORT
/KSAV/ HAVE BEEN TEMPORARILY REMOVED DUE TO AN ERRONEOUS TEMPERATURE
SENSOR. THE OBSERVATION WILL BE REINTRODUCED ONCE REPAIRS ARE COMPLETE.

SCZ027-030-031-034>040-042>050-062100-
...SOUTHEAST SOUTH CAROLINA...

CITY           SKY/WX    TMP DP  RH WIND       PRES   REMARKS
N CHARLESTON   CLOUDY    53  30  41 NE12      30.24F
WATERFRONT PRK   N/A     51  39  63 E7        30.10F
MOUNT PLEASANT CLOUDY    50  36  57 NE7       30.25S
JOHNS ISLAND   CLOUDY    52  37  58 NE12      30.24S
PINOPOLIS        N/A     52  28  40 NE8       30.19F
MONCKS CORNER  CLOUDY    48  23  37 N6        30.25S
SUMMERVILLE    CLOUDY    52  30  43 N10       30.26F
BEAUFORT MCAS  CLOUDY    53  31  42 NE7       30.24F
BEAUFORT ARPT  LGT RAIN  52  36  54 E5        30.23S
HILTON HEAD IS CLOUDY    50  37  62 NE9       30.24F
WALTERBORO     CLOUDY    52  28  40 N7        30.26R
ALLENDALE      LGT RAIN  45  32  61 CALM      30.27S

...SOUTHERN MIDLANDS AND PEE DEE...

CITY           SKY/WX    TMP DP  RH WIND       PRES   REMARKS
GEORGETOWN     NOT AVBL
KINGSTREE      NOT AVBL
ORANGEBURG     CLOUDY    49  23  36 NE7       30.26F
BARNWELL       DRIZZLE   46  32  57 CALM      30.28R
AIKEN          CLOUDY    46  23  39 N6        30.30R
MANNING        CLOUDY    48  23  37 N7        30.27F
COLUMBIA       CLOUDY    52  21  29 E9        30.25F
SUMTER         LGT RAIN  48  25  40 NE12      30.25F
FLORENCE       PTSUNNY   50  25  37 NE12      30.28F
MYRTLE BEACH   PTSUNNY   52  27  37 NE7       30.29F
N MYRTLE BEACH CLOUDY    51  28  41 NE9       30.27F

$$

GAZ063-065-086>088-099>101-113>116-118-119-134>141-150-062100-
...SOUTHEAST GEORGIA...

CITY           SKY/WX    TMP DP  RH WIND       PRES   REMARKS
SAVANNAH ARPT  LGT RAIN  48  41  76 N6        30.24F
HUNTER AAF     CLOUDY    48  39  71 N8        30.20F
FORT STEWART   CLOUDY    49  36  61 NE6       30.21F
STATESBORO     LGT RAIN  49  33  53 N5        30.26R
SYLVANIA       RAIN      46  38  75 NE7       30.26S
CLAXTON        DRIZZLE   45  42  89 NW3       30.26S

...CSRA...CENTRAL AND FAR SOUTHEAST GEORGIA...

CITY           SKY/WX    TMP DP  RH WIND       PRES   REMARKS
THOMSON        CLOUDY    52  28  38 NE8       30.29F
AUGUSTA-BUSH   CLOUDY    49  24  37 SE6       30.27S
AUGUSTA-DANIEL CLOUDY    51  22  31 NE6       30.26S
SWAINSBORO     LGT RAIN  45  32  61 N5        30.27R
VIDALIA        CLOUDY    43  37  81 N3        30.26S
EASTMAN        CLOUDY    46  33  61 NE5       30.30R
HAZLEHURST     CLOUDY    46  39  78 N7        30.24F
ALMA           CLOUDY    47  38  71 N8        30.22F
WAYCROSS       CLOUDY    54  38  56 NE8       30.20F
JESUP          CLOUDY    54  37  54 NE6       30.21F
BAXLEY         LGT RAIN  48  37  66 N12       30.22F
BRUNSWICK      CLOUDY    52  41  66 NE13G18   30.21F
SAINT SIMONS   CLOUDY    51  44  77 NE17G23   30.19F

$$

SCZ027-028-034-036>038-045-046-048>050-GAZ119-141-062100-
...LAKE AND SUPPLEMENTAL COASTAL OBSERVATIONS...

STATION/POSITION TIME  TEMP    WIND        PRES    WAVE   SWELL
                       AIR SEA DIR/SP/G            HT/PER HT/PER/DIR
                 (UTC) (F)     (DEG/KT/KT) (MB)    (FT/S) (FT/S/D)
WINYAH BAY       1945   47      60/ 11     1024.0S
LAKE MURRAY      1900   51      20/  3/  9 1025.1F
ACE BASIN NERRS  1900   54      30/  3     1024.0F
FORT PULASKI     2000   47 54   10/  8/ 11 1023.7F
SAPELO ISLAND    2000   51      20/ 15     1023.0S

$$

ANZ835-935-AMZ111-154-330-350-352-354-370-450-454-472-062100-
...C-MAN AND BUOY OBSERVATIONS...

STATION/POSITION TIME  TEMP    WIND        PRES    WAVE   SWELL
                       AIR SEA DIR/SP/G            HT/PER HT/PER/DIR
                 (UTC) (F)     (DEG/KT/KT) (MB)    (FT/S) (FT/S/D)
BUOY 41004       1950   55 64   40/ 23/ 27 1021.9F   7/ 6   3/ 9
BUOY 41008       1950   53 56   40/ 19/ 25 1022.0F   7/ 7   2/ 80/10
FOLLY BEACH CMAN 2000   49      50/ 20/ 22 1024.1F
CAPERS NEARSHORE 1908   49      60/ 19/ 23 1023.7F
FRIPP NEARSHORE  1900   50      40/ 21/ 23 1023.0F


STATION/POSITION TIME  TEMP    WIND        PRES    WAVE   SWELL
                       AIR SEA DIR/SP/G            HT/PER HT/PER/DIR
                 (UTC) (F)     (DEG/KT/KT) (MB)    (FT/S) (FT/S/D)
5E ST. MARYS GA  1921      57                N/A     6/ 6   2/ 90/12
FRYING PAN BUOY  2000   53 68   30/ 17/ 23 1024.0F
BUOY 41025       1950   51 72   20/ 17/ 23 1025.6F   6/12   5/ 80/12
CAPE LOOKOUT NC  NOT AVBL
BUOY 41002       1950   61 69  100/ 14/ 17   N/A     9/11   8/ 20/11
BUOY 41010       1920   69 74              1019.4F
ST AUGUSTINE FL  2000   57 58  360/ 19/ 21 1020.2F


$$



USA.gov is the U.S. government's official web portal to all federal, state and local government web resources and services.